This demonstration page uses our WeatherBlox Daily Observations layout. Learn more.

Left ArrowRight Arrow

36.19886, -115.1175

Hourly Observations for September 5, 2021

Temp ( °F °C ) Dew Point ( °F °C ) Humidity (%) Winds ( mph kmh ) Pressure ( in mb ) Visibility ( mi km ) Precip ( " mm )
12:53 am 00:53 Clear 83 28.3 29 -1.7 14 14 WNW 9 15 29.88 1012 10 16 0.00 0.00
1:53 am 01:53 Clear 83 28.3 29 -1.7 14 14 WNW 6 9 29.87 1012 10 16 0.00 0.00
2:53 am 02:53 Clear 81 27.2 30 -1.1 16 16 SW 5 7 29.88 1012 10 16 0.00 0.00
3:53 am 03:53 Clear 79 26.1 31 -0.6 17 17 WSW 3 6 29.89 1012 10 16 0.00 0.00
4:53 am 04:53 Clear 82 27.8 28 -2.2 14 14 NNW 5 7 29.89 1012 10 16 0.00 0.00
5:53 am 05:53 Clear 81 27.2 29 -1.7 15 15 Calm 29.91 1013 10 16 0.00 0.00
6:53 am 06:53 Sunny 81 27.2 27 -2.8 14 14 NW 9 15 29.92 1013 10 16 0.00 0.00
7:53 am 07:53 Sunny 85 29.4 27 -2.8 12 12 NW 10 17 29.94 1014 10 16 0.00 0.00
8:53 am 08:53 Sunny 89 31.7 28 -2.2 11 11 N 6 9 29.95 1014 10 16 0.00 0.00
9:53 am 09:53 Sunny 95 35 27 -2.8 9 9 N 3 6 29.95 1014 10 16 0.00 0.00
10:53 am 10:53 Sunny 97 36.1 28 -2.2 9 9 VRB 5 7 29.95 1014 10 16 0.00 0.00
11:53 am 11:53 Sunny 99 37.2 27 -2.8 8 8 Calm 29.93 1013 10 16 0.00 0.00
12:53 pm 12:53 Sunny 101 38.3 28 -2.2 8 8 Calm 29.91 1013 10 16 0.00 0.00
1:53 pm 13:53 Sunny 103 39.4 34 1.1 9 9 SSE 8 13 29.88 1012 10 16 0.00 0.00
2:53 pm 14:53 Sunny 104 40 36 2.2 9 9 SE 6 9 29.86 1011 10 16 0.00 0.00
3:53 pm 15:53 Sunny 104 40 35 1.7 9 9 VRB 3 6 29.84 1011 10 16 0.00 0.00
4:53 pm 16:53 Sunny 106 41.1 34 1.1 8 8 N 7 11 29.82 1010 10 16 0.00 0.00
5:53 pm 17:53 Sunny 105 40.6 34 1.1 8 8 Calm 29.81 1010 10 16 0.00 0.00
6:53 pm 18:53 Sunny 102 38.9 34 1.1 9 9 E 3 6 29.81 1010 10 16 0.00 0.00
7:53 pm 19:53 Clear 98 36.7 35 1.7 11 11 ENE 3 6 29.82 1010 10 16 0.00 0.00
8:53 pm 20:53 Clear 96 35.6 39 3.9 14 14 WNW 5 7 29.85 1011 10 16 0.00 0.00
9:53 pm 21:53 Clear 92 33.3 39 3.9 16 16 NW 6 9 29.86 1011 10 16 0.00 0.00
10:53 pm 22:53 Clear 90 32.2 36 2.2 15 15 NW 9 15 29.87 1012 10 16 0.00 0.00
11:53 pm 23:53 Clear 91 32.8 34 1.1 13 13 NW 10 17 29.88 1012 10 16 0.00 0.00

Powered by AerisWeather